Wind_Speed
47 46 45 44 44 45 46 47 47 46 44 44 44 43 43 44 46 49 51 53 55 58 62 67 73 78 80 82 83 81 78 76 74 70 65 60 57 56
45 43 42 42 42 42 43 44 45 44 44 43 42 42 42 43 44 47 49 50 53 57 62 66 72 77 83 85 86 85 82 79 77 75 71 65 60 56
43 42 41 41 40 40 41 42 43 44 43 42 41 40 40 42 43 44 45 46 48 50 55 59 61 65 72 80 83 83 81 79 77 76 73 69 62 57
40 41 41 41 40 39 39 40 40 41 42 42 40 38 39 40 41 42 42 42 41 43 48 50 52 55 61 69 76 79 77 75 74 73 74 72 68 62
38 38 38 38 37 37 36 37 38 39 41 42 40 38 38 39 40 40 41 39 37 37 39 43 48 51 54 60 66 74 76 72 70 69 71 71 70 69
37 37 37 37 36 36 36 36 37 39 41 41 41 39 39 40 40 40 40 39 37 35 35 37 44 49 53 56 59 65 71 73 70 67 68 71 71 70
36 38 38 38 37 37 38 37 38 40 41 41 41 41 41 41 41 41 40 38 37 35 35 36 39 46 53 57 59 61 65 70 71 68 67 69 72 73
36 37 39 39 39 39 39 39 40 41 43 43 43 44 43 42 42 42 40 37 36 36 36 36 38 42 47 55 60 62 63 66 67 66 66 67 70 74
35 37 39 41 42 42 42 42 42 43 45 46 46 46 45 44 44 43 41 37 35 36 37 35 38 40 42 48 56 61 61 63 65 64 62 63 66 71
35 37 40 42 43 43 43 44 45 46 47 48 47 47 47 46 45 44 42 38 35 35 36 34 35 37 38 43 49 56 59 59 60 61 61 61 63 68
37 38 40 41 42 44 45 46 46 47 48 49 48 48 49 49 47 45 43 39 35 34 35 34 32 32 33 38 44 51 55 56 57 57 58 60 60 62
42 42 43 43 44 45 47 47 47 48 49 50 50 49 50 50 49 47 45 42 37 34 34 34 31 29 28 32 40 49 53 55 54 55 55 56 58 59
44 45 45 46 46 47 48 49 49 50 51 51 51 51 52 52 52 51 48 45 40 37 36 35 32 29 26 25 33 44 52 55 55 55 55 55 56 58
44 46 47 47 48 48 49 50 51 51 51 51 52 53 53 54 54 53 52 48 44 40 38 36 33 31 28 23 26 36 47 54 57 58 58 57 57 58
45 46 46 46 46 47 48 49 50 51 51 51 52 53 54 55 55 54 54 51 47 43 40 39 36 33 31 27 24 28 36 45 53 57 59 59 60 61
45 45 45 45 46 46 48 49 50 52 52 53 53 54 54 54 54 54 54 53 50 46 44 42 40 38 35 33 30 28 29 33 40 47 53 58 61 63
48 48 48 47 48 49 50 52 52 53 53 53 53 53 53 53 53 53 53 52 51 48 47 47 46 44 42 40 37 36 36 36 37 40 45 48 52 57
51 52 52 52 52 52 53 54 55 55 55 54 54 54 53 52 52 52 52 52 52 51 50 50 51 52 51 48 46 44 44 44 45 45 47 48 50 52
55 55 55 55 55 55 56 56 56 56 56 57 56 56 55 54 54 54 54 55 55 56 55 55 57 58 58 57 54 53 52 51 52 52 53 54 54 55
59 59 59 59 59 58 58 59 59 59 58 57 57 57 56 56 56 57 57 59 60 62 62 62 63 64 65 64 62 60 60 60 59 59 59 60 61 62
63 63 63 63 63 62 62 62 62 62 62 61 61 61 61 61 61 61 62 63 64 66 66 67 69 70 70 70 69 67 67 68 67 66 66 67 67 68
69 69 68 68 68 67 67 67 67 67 67 67 67 67 67 66 66 66 67 68 69 70 71 72 73 74 74 73 72 72 72 73 73 73 73 73 73 74
75 75 75 75 75 75 75 74 74 74 74 74 73 73 72 72 72 71 71 72 72 72 73 73 73 74 74 74 74 74 74 75 75 75 75 75 74 73
Wind_Direction
240 241 244 247 251 254 257 258 259 259 257 257 259 261 263 264 264 263 264 264 265 266 268 267 263 258 253 249 245 243 242 240 239 240 241 243 246 250
237 239 243 248 252 256 257 258 257 257 256 256 259 262 265 268 269 269 269 269 270 272 274 274 267 258 251 247 244 241 240 239 238 237 238 239 242 247
235 238 244 248 253 256 258 259 258 257 257 257 259 262 266 270 272 273 273 276 280 284 286 281 269 258 249 243 240 238 237 237 236 235 236 236 237 243
235 239 244 248 253 257 261 262 261 261 259 258 259 261 265 269 272 274 277 282 288 293 291 281 268 258 250 243 239 236 234 233 233 233 233 233 233 234
235 240 245 249 254 258 262 263 262 261 260 259 260 260 263 267 269 273 277 282 289 296 295 281 266 257 250 245 241 237 233 230 230 230 230 231 231 231
238 242 247 252 257 260 262 263 262 261 261 261 261 260 261 264 268 271 275 279 286 292 295 282 266 257 251 246 242 239 236 231 228 227 227 228 228 230
242 246 251 256 259 261 262 263 264 263 263 262 261 260 259 262 266 270 274 278 283 289 292 286 273 261 252 246 241 238 236 234 231 229 229 228 228 228
248 252 256 259 260 261 263 265 267 267 266 264 262 260 259 260 264 269 273 276 280 285 290 291 283 269 257 247 241 238 235 232 230 229 229 230 229 228
255 257 258 259 259 261 263 266 268 269 269 266 264 261 260 260 262 265 269 273 277 281 285 290 287 277 264 252 243 237 233 230 227 227 229 230 230 229
263 261 260 260 260 262 263 265 267 268 268 266 264 262 260 260 261 262 265 269 273 279 283 288 289 283 269 255 243 235 231 227 226 227 228 229 230 231
267 265 264 264 263 263 264 265 266 267 267 266 264 262 260 259 259 260 263 265 269 274 281 286 289 289 276 258 244 233 227 224 223 223 225 228 228 230
266 266 267 268 268 267 266 266 266 266 265 265 264 263 261 260 259 259 260 262 264 268 274 280 286 291 285 263 244 231 224 223 224 223 222 224 226 228
267 267 268 269 267 266 265 265 264 264 263 263 263 263 261 260 259 259 259 260 261 263 267 272 278 284 286 269 247 233 226 222 224 226 225 225 226 228
271 270 269 268 266 264 262 262 261 261 261 261 262 263 262 261 259 259 259 259 259 260 263 267 270 273 277 275 256 240 231 226 225 226 228 230 230 232
273 272 271 269 266 264 262 261 261 260 260 261 261 262 261 260 260 259 259 259 260 260 261 263 266 267 268 267 263 251 242 235 231 229 231 232 233 233
272 271 269 268 266 265 263 263 263 262 263 263 262 261 261 260 258 257 257 258 260 261 262 262 263 264 264 263 259 255 252 247 243 239 237 236 235 236
272 271 268 266 264 264 263 263 263 264 264 263 262 261 260 260 258 257 256 256 257 258 260 263 264 264 264 263 260 256 252 249 247 246 244 242 240 239
270 270 269 268 267 266 265 265 264 263 262 262 261 260 259 259 258 258 257 256 256 257 258 261 265 267 266 265 263 260 255 251 248 247 246 245 244 243
270 270 269 269 268 268 268 267 267 266 264 263 262 261 259 258 258 258 258 258 257 258 259 260 262 265 266 267 266 264 260 255 252 250 249 248 247 247
270 270 269 268 268 268 267 268 268 268 267 266 265 264 263 262 261 261 261 261 261 261 261 262 263 263 264 265 265 265 264 260 257 254 252 251 249 249
269 268 268 267 267 267 267 267 267 267 267 267 267 266 266 265 264 264 264 264 264 264 264 265 265 265 264 264 263 263 263 262 260 258 256 255 253 252
269 269 269 268 268 267 267 267 267 268 268 267 268 268 268 268 267 267 267 267 266 266 266 266 267 267 266 265 264 263 263 261 261 260 259 257 256 255
270 270 269 269 269 269 269 269 269 269 269 269 269 269 269 270 270 270 270 270 270 270 270 269 269 268 267 266 265 264 262 261 259 258 257 255 254 252
Height
5585 5590 5594 5598 5600 5602 5603 5604 5606 5608 5609 5610 5611 5612 5615 5617 5618 5619 5620 5621 5622 5623 5623 5622 5623 5625 5629 5636 5642 5649 5656 5664 5672 5679 5684 5689 5694 5699
5572 5577 5581 5584 5587 5589 5590 5591 5592 5594 5596 5598 5599 5600 5601 5603 5604 5604 5605 5605 5604 5603 5601 5598 5597 5598 5602 5609 5618 5627 5635 5644 5653 5662 5669 5676 5682 5687
5559 5564 5569 5572 5574 5575 5576 5577 5579 5580 5583 5585 5587 5588 5588 5588 5589 5589 5589 5588 5585 5582 5578 5575 5571 5572 5576 5583 5593 5603 5613 5623 5633 5643 5652 5661 5668 5674
5547 5552 5556 5559 5561 5562 5563 5564 5565 5567 5570 5572 5574 5575 5575 5575 5575 5575 5574 5572 5568 5564 5560 5556 5554 5554 5558 5563 5572 5582 5593 5603 5613 5624 5636 5647 5654 5659
5535 5539 5543 5546 5548 5549 5550 5552 5553 5555 5557 5559 5561 5563 5563 5562 5563 5562 5561 5558 5554 5550 5546 5542 5540 5541 5544 5549 5555 5564 5574 5586 5596 5606 5614 5625 5636 5643
5524 5528 5531 5534 5535 5537 5539 5540 5542 5544 5545 5546 5548 5550 5550 5550 5550 5550 5548 5546 5542 5538 5534 5531 5529 5529 5532 5535 5541 5549 5558 5567 5577 5587 5597 5608 5617 5626
5513 5516 5519 5521 5523 5525 5527 5529 5530 5531 5533 5533 5535 5536 5537 5537 5537 5537 5536 5534 5531 5527 5524 5520 5517 5517 5518 5521 5526 5532 5540 5550 5560 5570 5579 5590 5599 5608
5502 5504 5507 5509 5512 5514 5516 5517 5517 5518 5519 5520 5521 5523 5525 5525 5525 5524 5524 5522 5520 5517 5513 5510 5506 5504 5503 5505 5510 5516 5524 5533 5544 5554 5563 5573 5582 5592
5490 5493 5495 5498 5500 5502 5503 5503 5504 5504 5506 5507 5508 5510 5511 5512 5512 5512 5512 5511 5510 5507 5502 5500 5495 5491 5490 5490 5494 5501 5509 5518 5529 5539 5548 5557 5566 5576
5479 5481 5483 5485 5487 5489 5489 5489 5490 5490 5491 5492 5494 5496 5497 5498 5499 5499 5499 5499 5499 5496 5492 5490 5486 5480 5478 5477 5481 5486 5495 5505 5515 5525 5535 5543 5551 5560
5468 5469 5470 5472 5474 5474 5474 5475 5475 5475 5476 5477 5479 5481 5483 5484 5485 5486 5486 5487 5488 5486 5482 5479 5477 5472 5468 5467 5469 5474 5482 5493 5503 5512 5522 5530 5538 5546
5455 5457 5457 5458 5459 5459 5459 5460 5460 5460 5461 5462 5464 5465 5467 5469 5471 5472 5473 5474 5476 5476 5473 5470 5468 5464 5462 5460 5461 5465 5473 5483 5492 5501 5510 5518 5525 5532
5441 5443 5444 5444 5444 5444 5444 5444 5444 5445 5445 5446 5448 5450 5452 5454 5455 5457 5459 5461 5463 5465 5464 5461 5460 5457 5456 5456 5455 5459 5465 5473 5481 5490 5498 5505 5513 5519
5427 5427 5428 5428 5428 5428 5428 5429 5429 5429 5430 5431 5432 5434 5435 5437 5440 5441 5444 5446 5450 5452 5452 5451 5451 5450 5451 5451 5452 5453 5457 5463 5471 5479 5486 5493 5500 5507
5412 5411 5411 5411 5411 5411 5412 5412 5413 5414 5415 5416 5417 5419 5420 5421 5423 5426 5427 5430 5434 5437 5439 5439 5440 5441 5443 5445 5447 5448 5450 5454 5460 5467 5474 5480 5487 5494
5396 5395 5395 5394 5394 5394 5395 5396 5396 5397 5398 5399 5400 5402 5404 5406 5407 5410 5412 5414 5417 5421 5423 5425 5427 5429 5432 5434 5438 5441 5443 5446 5450 5455 5461 5467 5473 5479
5379 5379 5378 5378 5378 5378 5378 5379 5379 5380 5381 5382 5383 5385 5387 5389 5391 5393 5396 5398 5401 5405 5407 5408 5411 5414 5418 5422 5426 5430 5433 5437 5440 5443 5446 5452 5458 5464
5362 5361 5360 5360 5360 5360 5361 5361 5362 5362 5364 5365 5366 5368 5370 5372 5374 5376 5378 5381 5384 5388 5391 5393 5393 5396 5401 5406 5411 5415 5418 5423 5427 5430 5433 5437 5442 5447
5343 5342 5341 5341 5341 5341 5341 5341 5342 5343 5344 5346 5348 5349 5351 5354 5356 5358 5360 5363 5366 5369 5373 5376 5378 5379 5382 5386 5392 5396 5400 5406 5411 5415 5419 5422 5427 5431
5321 5321 5321 5321 5321 5321 5321 5321 5322 5323 5324 5325 5327 5329 5332 5334 5337 5339 5341 5343 5346 5349 5352 5355 5358 5360 5363 5367 5372 5377 5378 5383 5389 5395 5400 5404 5409 5414
5299 5299 5298 5298 5299 5299 5300 5300 5301 5302 5303 5305 5307 5309 5311 5314 5316 5318 5321 5323 5325 5327 5330 5333 5334 5337 5341 5345 5350 5356 5358 5359 5364 5370 5376 5381 5387 5392
5274 5273 5273 5273 5274 5275 5276 5277 5278 5279 5281 5283 5285 5287 5289 5291 5294 5296 5299 5301 5302 5304 5307 5309 5310 5313 5317 5321 5326 5330 5333 5336 5340 5345 5350 5356 5360 5367
5246 5246 5246 5246 5246 5247 5249 5251 5252 5254 5255 5257 5260 5262 5264 5266 5269 5271 5274 5276 5278 5279 5281 5283 5284 5287 5290 5294 5298 5302 5305 5308 5313 5319 5324 5329 5334 5341